Theta_e
303 306 307 308 308 306 305 305 305 305 306 306 306 306 308 308 308 309 314 314 314 318 319 319 319 320 319 323 328 329 329 329 330 332 333 332 332 332 332 332 333 336 335 333 333 333 333 336 333 335 343 343 342 342
304 304 306 307 307 308 308 307 306 306 306 306 306 307 308 308 308 308 315 315 314 315 319 316 316 316 318 319 322 325 328 330 333 335 332 332 333 332 335 335 333 335 335 335 334 334 343 338 337 337 340 341 343 343
304 303 304 305 305 305 307 309 309 308 307 308 307 307 308 308 308 308 311 313 313 317 320 323 322 321 318 316 316 321 325 325 329 327 333 335 335 333 333 332 332 332 332 333 333 331 332 336 336 337 339 341 341 338
307 305 304 304 304 305 305 307 307 308 308 308 308 308 309 309 308 307 310 313 314 316 323 325 322 324 323 320 316 315 320 320 322 326 329 330 332 331 332 332 331 331 334 334 334 333 334 334 334 337 339 339 336 335
308 308 307 306 305 305 305 306 306 307 308 308 309 309 308 308 308 307 309 311 312 317 326 326 322 322 322 323 322 318 316 319 321 325 327 328 329 329 330 330 330 329 329 329 330 331 333 333 336 337 337 336 334 334
309 308 308 307 306 305 305 305 306 307 308 308 309 309 308 308 308 310 320 315 312 312 321 327 324 322 325 324 325 323 320 319 321 324 325 325 325 327 329 328 326 326 326 326 329 330 331 332 335 336 335 333 333 333
309 308 308 308 306 305 305 307 306 307 307 308 309 308 309 308 307 316 320 316 313 315 321 328 326 323 325 326 327 327 324 323 323 324 325 325 326 326 326 322 323 324 325 327 327 329 331 330 332 334 333 333 331 333
309 310 309 307 306 307 306 306 306 306 307 308 308 309 310 311 308 315 315 311 312 317 322 327 326 326 325 328 329 328 328 327 327 328 328 329 329 329 330 328 327 326 326 325 325 325 330 329 330 332 333 334 333 334
310 310 308 307 307 306 306 306 306 307 308 309 308 309 311 312 320 317 313 312 312 318 325 327 328 334 327 328 329 328 328 329 327 329 328 328 329 332 331 330 330 329 329 327 326 327 329 329 332 333 333 334 333 332
310 309 307 307 306 305 306 307 308 308 309 309 311 316 322 317 311 311 315 318 318 320 322 327 326 328 325 328 329 329 328 328 331 331 328 330 331 329 328 329 329 330 330 329 328 330 331 331 333 333 333 333 332 331
310 309 308 307 306 306 306 308 308 308 309 310 315 317 314 313 316 320 324 324 323 324 324 324 325 326 324 328 332 328 335 329 329 330 331 331 331 332 331 331 331 329 329 328 329 329 330 331 333 333 331 331 330 331
310 308 307 306 306 306 308 308 306 307 307 307 307 307 310 317 321 322 324 324 326 327 327 327 327 326 329 328 330 331 329 329 330 331 332 332 345 336 333 332 331 329 329 330 330 332 332 332 332 332 331 331 330 329
308 307 306 306 306 306 308 306 305 305 307 309 308 312 318 321 325 322 324 326 328 327 331 330 331 330 330 328 328 329 329 329 330 331 330 340 339 336 334 332 331 330 331 331 331 330 329 329 327 327 328 327 327 327
308 307 306 305 306 307 306 305 305 305 307 313 318 322 322 323 322 322 323 327 326 329 331 333 332 333 333 333 331 331 328 329 330 329 330 345 339 337 334 333 332 331 330 330 329 329 328 327 326 325 325 324 325 327
307 307 307 306 306 305 305 305 305 305 309 314 318 323 321 320 323 324 322 324 328 329 331 330 328 327 329 329 329 330 332 332 328 331 339 339 338 336 334 332 331 330 329 329 327 326 326 325 326 326 325 326 325 325
306 306 309 307 305 304 304 306 308 308 309 312 317 320 320 320 321 323 322 323 323 329 330 328 328 328 329 327 331 330 329 330 336 335 335 336 336 334 333 333 331 328 325 325 324 324 324 325 325 326 326 326 326 325
305 308 307 306 304 304 306 306 310 309 311 314 318 317 318 319 321 321 321 321 320 324 328 328 328 327 327 329 329 328 331 335 332 333 335 335 335 334 332 331 326 325 325 324 324 325 325 325 324 323 326 324 325 326
306 307 306 305 304 306 307 308 311 312 314 315 316 316 317 318 319 319 318 319 321 321 323 326 327 328 328 327 327 330 333 329 329 332 333 334 332 331 330 330 325 325 325 325 325 326 325 325 324 323 322 322 324 325
305 305 304 304 304 305 308 308 310 313 313 314 315 315 316 316 315 316 317 317 317 318 319 320 324 326 326 324 327 326 325 325 331 328 328 331 329 329 328 326 325 324 324 325 326 325 325 326 325 324 323 323 324 326
303 303 304 305 305 308 308 309 309 312 313 315 313 314 314 315 315 315 315 316 318 318 319 320 320 321 321 322 326 325 324 326 325 326 329 332 328 328 327 325 323 324 323 324 325 322 325 326 326 326 324 324 326 325
305 306 305 306 306 306 309 310 310 311 311 312 312 312 313 314 315 316 316 316 316 317 319 319 319 319 319 320 319 321 324 324 328 327 328 327 327 327 326 323 323 322 322 322 325 322 323 323 324 325 325 326 325 323
306 305 307 305 307 306 307 307 310 309 310 311 312 313 314 315 315 316 317 317 317 318 318 319 319 319 320 321 320 319 320 321 323 324 322 323 326 328 328 325 323 323 322 322 322 321 322 322 322 323 323 322 322 323
304 305 306 307 307 307 309 309 311 310 313 314 315 316 317 318 317 317 319 320 320 323 323 324 324 323 324 322 322 321 320 321 322 324 324 323 323 325 325 325 324 322 323 322 321 321 321 321 319 320 321 321 321 320
304 307 307 308 307 310 310 311 310 311 313 315 316 317 317 318 316 318 321 324 323 322 322 321 320 322 324 325 325 326 323 320 322 322 322 322 322 323 325 325 325 321 321 321 322 321 321 320 321 321 321 321 321 321
309 308 309 309 309 310 311 311 313 313 314 316 316 316 318 318 320 321 323 324 321 321 319 315 315 319 322 325 327 326 323 320 321 322 322 323 322 321 323 324 325 322 320 322 323 323 321 320 320 320 321 321 321 321
307 308 309 309 310 311 312 314 315 314 315 316 316 316 317 318 320 322 324 323 321 319 315 316 315 315 317 320 325 324 324 322 322 322 321 323 323 322 323 325 324 321 321 320 322 322 323 322 320 320 320 320 320 320
309 307 308 308 309 310 311 311 311 313 314 315 316 317 317 319 320 321 322 321 320 317 313 312 313 315 316 318 318 319 322 323 324 321 320 322 322 322 321 325 325 322 320 321 321 321 322 323 322 321 320 320 320 319
307 308 309 310 310 309 311 311 311 312 313 314 315 316 317 320 322 322 323 318 318 316 315 313 312 312 312 314 316 317 320 324 323 322 322 322 321 321 321 322 323 322 321 322 321 321 322 322 322 322 321 320 320 321
307 308 308 309 309 309 309 309 311 312 312 314 316 316 316 316 316 316 315 316 316 315 315 313 313 315 316 316 318 320 322 324 325 324 324 324 323 321 322 322 322 322 321 321 321 321 322 322 323 323 323 322 322 321
308 308 308 309 310 310 311 311 312 312 312 312 313 314 315 317 316 317 318 319 320 320 318 317 316 315 316 318 324 322 322 323 324 324 325 324 323 322 322 322 322 322 322 321 321 322 321 320 321 321 322 321 321 321
308 308 309 309 311 311 311 311 311 311 312 314 315 317 318 318 318 319 321 322 324 322 319 318 317 317 319 321 323 325 326 326 325 325 325 323 324 325 324 323 323 321 322 322 322 323 323 322 323 322 322 322 322 322
309 309 309 310 313 312 311 313 315 318 317 319 320 320 320 321 324 326 323 323 323 321 319 321 320 322 322 322 324 325 323 326 326 326 326 325 325 325 323 322 321 321 322 323 323 323 323 323 323 322 323 322 323 323
310 309 308 309 312 318 319 317 321 320 321 322 322 321 323 324 326 325 323 323 324 323 324 323 323 323 324 324 323 325 324 325 322 320 321 320 319 319 320 322 322 322 322 322 322 322 322 322 323 323 322 323 323 323
Wind_Speed
18 18 19 20 21 22 22 22 22 22 21 21 21 19 18 16 16 14 12 6 8 7 16 18 15 12 9 7 9 5 6 10 7 10 10 9 10 7 8 11 11 13 13 12 15 16 20 10 0 4 8 8 8 3
18 18 19 20 21 22 22 23 23 23 22 21 20 19 18 16 14 12 9 4 8 7 10 22 22 23 17 16 9 6 7 5 6 5 7 7 6 5 2 9 10 9 10 7 8 6 6 4 6 3 5 6 3 6
19 19 20 21 22 23 23 23 24 24 23 22 21 20 19 16 14 10 12 12 12 7 13 13 10 12 15 24 19 6 6 5 1 3 6 5 3 6 7 10 14 6 6 6 11 13 10 9 5 4 5 6 7 9
20 20 21 22 23 24 25 25 25 25 24 24 22 22 21 18 16 14 12 8 9 6 5 4 6 6 6 7 18 23 13 6 7 5 6 6 6 3 9 13 9 4 4 2 9 13 9 8 7 5 5 9 9 7
21 21 22 24 25 25 27 26 26 26 25 25 24 24 23 22 18 15 16 16 14 7 5 8 18 4 7 8 11 15 17 11 7 6 6 7 7 7 7 11 10 10 13 10 11 11 6 6 8 9 10 10 11 9
21 22 23 25 26 26 26 27 26 26 27 27 26 26 28 21 12 6 4 7 11 11 4 4 6 4 4 6 8 8 8 7 7 5 5 6 5 2 6 11 16 13 15 11 9 8 6 10 8 12 11 11 8 6
23 23 24 25 26 25 26 27 27 28 28 27 28 29 26 18 9 6 5 3 8 7 3 4 3 6 4 8 6 6 8 5 6 8 7 8 5 5 8 12 13 13 11 7 5 9 10 14 7 11 11 9 6 9
23 24 25 25 24 25 26 27 28 29 28 27 28 24 14 2 8 7 5 4 8 6 4 4 4 5 9 6 6 5 6 5 6 5 4 5 4 5 5 9 7 9 10 11 11 8 14 16 14 12 9 10 10 10
23 25 24 22 23 23 24 26 29 31 28 25 19 12 3 5 1 4 3 4 7 5 5 4 7 3 7 6 4 5 6 6 5 6 9 6 8 7 6 8 8 6 5 7 8 13 11 12 12 12 12 12 11 9
23 23 22 22 21 22 23 23 27 27 23 12 5 6 3 4 2 1 3 3 4 5 4 5 7 5 3 6 7 5 6 7 6 9 8 7 8 13 12 14 3 4 3 7 8 8 7 8 8 11 12 11 9 6
22 21 20 20 21 21 22 19 23 25 12 8 5 4 6 6 5 4 3 5 4 4 5 7 10 7 4 5 1 3 2 4 3 6 6 6 7 1 2 5 4 5 8 8 8 8 10 7 2 3 3 2 3 4
22 20 19 19 19 20 16 16 20 14 11 10 14 10 6 4 5 4 4 3 5 4 3 7 6 8 2 2 4 4 5 2 4 2 3 8 5 4 4 4 3 5 5 4 2 5 8 8 6 4 2 2 4 4
21 19 19 17 18 17 12 17 19 19 18 1 3 3 3 4 1 6 6 4 4 2 3 3 5 3 1 5 5 2 5 6 5 4 7 3 7 4 4 5 6 6 9 9 8 7 5 5 4 4 4 5 6 9
20 19 19 19 19 10 14 18 18 18 4 3 3 3 5 5 5 4 5 3 3 3 1 3 2 1 3 3 3 4 3 2 4 5 3 6 6 5 5 6 6 7 7 6 5 4 2 1 1 2 4 5 8 8
18 19 20 18 7 12 18 19 15 7 3 4 3 4 6 6 2 4 4 4 4 5 4 3 3 4 5 4 4 3 3 5 3 1 4 5 6 7 6 4 4 4 4 4 4 4 4 4 5 7 7 7 8 9
15 16 6 6 14 20 20 16 8 3 3 3 5 6 6 6 4 3 2 1 4 2 3 4 3 2 5 3 3 6 4 2 3 2 7 7 7 6 5 6 4 4 3 4 4 3 3 5 6 7 9 10 10 10
11 5 6 15 18 19 14 6 4 4 3 4 4 4 6 7 6 3 4 3 3 6 2 2 3 4 2 3 4 3 2 3 4 4 4 5 6 5 6 5 5 4 4 3 1 2 4 6 7 7 7 5 8 8
8 10 12 15 16 13 3 4 3 4 6 6 6 5 5 5 6 6 3 6 5 2 3 2 4 4 3 4 3 3 3 5 4 4 2 4 5 6 5 5 5 4 4 3 3 3 4 5 5 4 5 6 6 6
13 15 15 14 9 5 3 3 4 4 3 6 6 6 5 6 6 6 7 5 5 6 3 3 5 4 6 6 7 4 1 6 3 3 2 5 6 6 4 8 5 3 1 2 5 6 4 3 4 2 2 2 1 3
15 13 8 5 4 3 3 3 3 4 3 3 3 6 6 7 6 7 7 8 8 7 5 5 8 8 8 2 3 4 5 6 3 2 2 3 6 5 4 5 6 7 6 4 4 1 4 3 5 4 4 5 4 6
8 4 4 3 3 4 3 3 3 4 5 4 5 5 6 7 7 7 7 7 6 7 9 11 11 10 9 8 13 5 6 4 3 6 3 2 6 6 4 7 7 5 4 6 4 6 1 3 11 5 10 8 6 5
2 3 3 3 3 3 3 6 4 5 4 6 8 5 4 4 5 4 3 6 8 10 10 10 10 8 8 9 8 12 13 12 8 4 3 4 4 5 3 8 7 5 1 8 11 3 8 9 6 4 10 9 8 9
5 2 2 3 3 3 5 4 3 3 4 3 3 3 3 3 2 2 4 5 4 1 3 3 8 11 10 15 14 14 14 15 8 7 7 6 5 7 13 12 13 8 5 6 4 7 9 11 9 8 6 2 6 3
3 3 2 2 4 4 3 3 3 3 3 4 3 4 1 0 1 3 5 1 2 1 3 7 5 5 8 10 10 9 16 16 12 8 11 7 5 8 7 10 18 14 10 2 3 5 12 7 15 11 7 8 4 3
3 3 4 4 4 4 4 4 4 3 3 3 4 3 2 2 3 3 2 3 2 1 2 5 7 6 8 8 7 9 19 16 8 8 15 13 11 8 10 14 17 16 13 15 17 10 7 9 9 11 18 13 12 8
4 5 5 3 3 2 1 3 4 1 5 3 4 1 2 1 3 3 1 4 3 2 2 4 5 5 7 9 6 4 12 19 12 9 14 18 12 11 7 8 6 11 13 11 11 8 9 10 9 9 8 11 9 10
4 4 4 3 1 2 3 5 6 6 3 3 1 1 0 3 3 2 3 2 1 7 8 8 8 6 6 10 13 16 10 14 21 10 16 17 12 16 16 13 8 13 14 10 12 13 9 10 12 10 9 9 10 13
2 3 3 1 2 3 5 4 4 4 3 3 2 2 2 3 1 3 4 10 10 14 14 13 11 15 16 16 15 13 14 12 7 9 7 6 8 15 23 24 21 8 2 13 9 8 12 11 7 15 13 11 14 15
3 3 3 8 7 4 4 4 5 4 3 3 4 4 4 6 10 10 15 15 9 13 7 6 8 10 12 14 15 13 11 7 5 8 11 9 9 16 22 22 21 15 14 13 9 11 10 7 6 5 9 10 11 15
3 4 3 4 4 5 6 5 6 7 7 6 6 8 9 9 14 15 11 11 3 9 12 10 6 4 5 4 5 9 15 12 15 14 6 8 7 13 19 23 24 22 18 19 15 17 18 15 15 17 16 16 15 13
2 2 3 5 4 5 5 6 8 8 10 11 10 10 10 8 11 6 6 9 15 11 1 5 5 11 3 10 8 6 6 5 5 5 7 12 11 18 24 28 21 20 17 12 12 18 11 9 18 18 18 17 18 16
4 4 2 3 4 4 8 4 5 6 7 6 6 3 3 3 1 4 8 7 9 7 3 2 3 12 14 15 10 7 3 3 4 3 3 8 6 9 4 10 16 18 15 18 27 16 12 13 15 18 22 15 17 18
2 3 4 3 4 4 2 4 4 2 1 1 1 2 3 5 4 4 8 8 7 7 3 3 6 7 7 3 4 2 1 2 2 2 5 7 9 9 7 10 13 11 14 18 17 13 14 14 16 13 14 14 10 10
Wind_Direction
337 339 341 342 341 341 342 341 339 336 334 334 334 335 336 337 340 347 305 304 297 293 293 287 281 270 271 247 266 43 259 218 255 234 239 241 250 223 228 257 217 209 220 227 251 264 262 41 139 278 24 335 341 320
333 333 334 336 338 339 339 338 338 337 333 332 331 329 328 328 331 334 292 329 298 264 284 307 284 269 264 272 294 289 323 310 2 279 242 257 265 236 245 251 199 244 284 321 321 353 123 1 353 10 307 284 264 124
330 330 330 332 332 334 335 335 335 333 332 331 329 325 321 320 319 305 294 299 293 259 273 237 238 222 233 237 239 264 247 2 265 331 322 318 316 306 266 226 270 231 244 259 284 287 322 8 350 294 241 202 136 111
327 328 327 327 328 329 330 330 330 330 330 329 326 323 319 314 308 294 269 275 278 274 276 127 145 190 199 205 218 229 266 303 289 285 281 271 262 255 273 286 311 326 72 250 271 262 278 261 256 208 152 133 156 171
324 326 326 325 325 326 328 326 327 326 326 324 324 321 318 313 304 287 264 251 244 282 324 315 304 272 202 192 206 218 230 245 268 258 237 249 266 274 267 282 280 278 272 256 267 278 314 282 169 176 178 186 168 154
322 324 325 324 323 324 323 324 324 322 322 322 323 321 319 310 294 275 233 192 210 210 281 285 21 183 158 171 184 188 208 224 248 264 258 262 282 324 263 258 257 259 266 278 262 313 331 307 192 180 192 192 157 166
317 321 322 323 322 322 322 321 323 322 320 321 322 320 316 300 220 247 8 59 183 204 255 276 217 143 175 169 181 177 191 206 226 224 240 262 229 186 256 260 278 289 297 290 309 308 283 262 247 190 205 164 125 122
316 319 322 323 322 323 324 324 322 320 318 320 321 318 318 280 198 238 232 232 175 249 263 272 260 167 185 194 181 180 181 210 197 256 228 243 196 216 264 269 284 297 300 292 275 244 257 264 224 185 186 147 172 164
316 318 321 321 323 327 327 327 324 320 316 319 314 311 258 245 303 63 278 215 201 276 297 250 273 58 167 225 176 174 208 207 215 221 241 242 239 227 211 237 254 262 269 278 265 246 253 244 196 183 187 170 204 170
314 318 319 322 325 326 328 332 334 333 327 319 283 210 194 63 311 192 178 194 202 202 230 258 284 255 233 171 188 204 186 242 206 213 223 237 250 262 250 235 312 342 258 282 263 256 234 238 195 185 194 206 200 195
312 315 316 321 323 324 328 330 333 341 356 358 316 14 345 309 238 214 214 219 179 217 226 236 249 258 166 258 327 234 19 245 256 230 216 241 233 355 58 47 18 330 280 256 254 254 238 214 187 214 174 225 164 216
309 309 315 321 321 326 330 331 339 349 333 308 293 302 295 247 228 238 231 212 214 239 212 213 186 222 139 256 254 175 234 239 229 210 259 249 84 57 76 66 34 331 311 236 150 87 47 65 57 40 19 244 253 225
304 303 315 319 319 324 317 327 333 330 330 223 208 249 248 215 253 221 206 216 207 226 176 198 186 199 4 241 231 190 230 235 164 224 233 80 101 90 80 77 68 68 75 74 78 88 99 118 146 207 226 237 249 252
302 302 306 311 315 304 315 322 330 335 314 261 225 239 238 198 235 231 281 37 332 17 274 169 224 171 199 246 232 221 288 288 229 232 208 130 113 103 101 103 120 120 121 126 134 123 101 166 321 280 264 273 281 261
300 302 305 306 298 317 319 318 322 311 265 271 232 242 222 252 253 290 307 292 3 327 298 225 206 225 196 206 226 211 218 229 233 213 97 100 115 121 115 112 108 104 79 64 23 20 6 341 315 301 292 275 262 255
303 317 263 295 316 315 317 316 291 212 245 250 254 263 303 269 272 227 251 101 9 338 294 249 223 251 233 215 232 224 231 201 60 72 108 137 132 133 123 103 110 77 73 61 41 30 5 351 331 319 302 287 278 277
302 260 302 312 314 318 314 284 208 210 250 249 250 276 285 275 280 280 276 262 316 292 284 286 240 220 226 236 226 224 358 76 57 52 64 130 140 127 117 122 96 100 93 70 38 351 329 308 316 314 298 304 282 261
263 288 299 312 323 316 268 229 256 239 241 236 245 248 253 274 295 297 321 352 305 273 288 275 303 239 226 252 70 16 61 94 54 71 131 159 145 140 145 146 154 130 95 61 9 304 275 336 324 334 307 273 268 259
277 288 294 303 302 302 284 256 240 269 266 307 281 266 269 275 277 270 274 257 253 281 286 263 246 244 245 278 11 51 4 304 137 204 210 190 175 198 168 180 168 162 124 9 335 1 34 37 26 336 83 76 301 72
291 293 284 279 246 252 240 242 260 273 266 237 236 253 261 272 275 268 259 248 236 216 213 231 248 269 286 18 25 329 342 351 324 339 227 194 165 162 198 203 189 136 212 192 198 231 270 105 92 88 109 127 132 134
298 229 279 237 215 258 298 282 247 265 291 267 280 265 264 244 245 244 236 234 239 232 241 245 259 271 279 284 295 311 306 303 344 343 258 186 212 178 182 200 189 210 247 161 163 161 217 86 119 83 136 150 166 145
272 283 264 215 254 213 256 245 270 309 271 276 285 270 271 263 252 255 305 234 227 236 232 253 258 265 264 244 248 249 258 265 272 210 186 160 217 178 241 259 219 203 127 285 152 144 147 96 60 130 144 140 178 207
291 258 258 232 247 222 265 238 250 218 257 266 266 246 228 220 257 134 236 215 241 31 290 317 329 318 306 294 293 269 238 241 229 215 216 198 187 212 214 229 254 222 186 237 278 163 111 120 120 161 171 150 296 159
249 257 244 242 200 255 232 220 233 282 288 266 257 269 289 323 246 236 247 131 66 18 49 3 336 295 293 279 272 251 245 221 223 215 216 200 193 240 228 225 251 230 212 114 233 225 168 161 149 177 220 239 168 269
242 225 218 251 213 234 234 229 203 206 263 261 280 287 19 24 262 254 248 99 77 68 5 349 327 321 292 291 297 282 286 212 202 195 213 222 182 241 245 268 246 226 204 188 220 209 210 184 192 181 184 193 230 208
237 204 202 240 217 254 292 297 350 176 262 253 238 343 46 314 270 287 58 170 171 133 341 309 308 308 303 296 291 322 316 317 264 207 192 213 186 196 234 263 228 215 216 197 219 226 223 226 206 189 212 189 196 251
246 238 219 265 228 193 265 269 250 264 265 262 296 14 281 254 244 260 35 82 206 204 242 266 255 257 269 284 296 298 329 312 285 253 187 193 176 200 226 268 259 250 213 220 205 208 239 220 208 223 205 222 220 199
288 300 258 287 260 263 264 260 256 248 249 258 195 218 242 247 263 201 193 200 229 250 248 271 259 259 255 261 269 275 281 276 264 134 143 166 204 193 212 245 259 282 212 266 224 250 228 228 217 250 208 220 209 219
249 248 272 270 251 251 248 227 255 218 220 247 259 272 263 281 320 321 309 304 257 226 205 243 259 256 256 250 246 253 252 288 125 191 196 198 191 215 222 233 243 240 228 235 220 246 270 289 319 305 305 274 231 225
239 208 258 273 249 229 228 222 279 331 333 334 316 299 295 289 298 303 307 306 17 159 222 232 259 293 277 274 276 206 212 216 189 190 233 227 218 215 220 218 226 236 230 220 225 216 222 237 252 257 258 258 261 250
256 232 251 246 259 270 273 262 268 273 269 267 260 257 270 279 290 294 348 334 296 110 83 163 190 213 154 253 267 289 271 207 225 258 32 322 281 280 224 228 213 215 219 219 253 252 206 231 250 231 230 239 245 247
203 216 253 274 285 302 299 258 249 238 270 254 258 204 202 235 9 8 340 351 76 67 55 325 109 154 209 249 258 173 41 94 127 105 183 234 274 26 56 254 223 210 209 204 228 241 238 246 222 224 259 227 243 243
172 168 211 263 271 269 204 207 233 252 229 280 289 3 354 12 53 357 25 32 359 26 64 313 333 7 26 347 9 12 332 70 85 50 39 31 24 12 344 300 288 256 243 238 249 252 258 275 286 256 251 268 268 279